Location: Navajo
(48.7922°N, 105.0603°W)
Time: 04:47:15
(UTC+00:00)

KKS-1 - Pass Details

Date: 05 July 2022
Orbit: 634 x 649 km, 98.2° (Epoch: 18 August)

Event Time Altitude Azimuth Distance (km) Brightness Sun altitude
Rises 05:26:09 0° 11° (NNE) 2,978 ? -15.1°
Reaches altitude 10° 05:28:23 10° 9° (N) 2,061 ? -15.3°
Maximum altitude 05:32:51 68° 288° (WNW) 700 ? -15.5°
Enters shadow 05:36:27 15° 207° (SSW) 1,714 ? -15.8°
